Location: Cabeza Gorda
(40.0667°N, 4.9667°W)
Time: 19:57:53
(UTC+00:00)

BREEZE-M DEB (TANK) - Pass Details

Date: 15 January 2026
Orbit: 328 x 13405 km, 49.6° (Epoch: 10 February)

Event Time Altitude Azimuth Distance (km) Brightness Sun altitude
Exits shadow 05:04:47 80° 319° (NW) 1,029 3.9 -29.3°
Maximum altitude 05:04:52 80° 331° (NNW) 1,039 3.9 -29.3°
Drops below altitude 10° 05:18:27 10° 59° (ENE) 6,269 8.8 -26.7°
Sets 05:27:31 0° 61° (ENE) 9,419 9.9 -24.9°
